Weather History for Paynesville, MN

Change the Weather History Date:

Saturday, September 15, 2012

  Actual Average (KLJF) Record (KLJF)
Temperature  
Mean Temperature 63 °F -  
Max Temperature 85 °F 70 °F 93 °F (1948)
Min Temperature 42 °F 47 °F 30 °F (1964)
Degree Days  
Heating Degree Days 2    
Growing Degree Days 13 (Base 50)    
Moisture  
Dew Point 39 °F    
Average Humidity 41    
Maximum Humidity 79    
Minimum Humidity 18    
Precipitation  
Precipitation 0.00 in - - ()
Sea Level Pressure  
Sea Level Pressure 30.07 in    
Wind  
Wind Speed 6 mph (SSE)    
Max Wind Speed 13 mph    
Max Gust Speed 20 mph    
Visibility 10 miles    
Events      
Averages and records for this station are not official NWS values.
T = Trace of Precipitation, MM = Missing Value Source: NWS Daily Summary

Daily Weather History Graph

Daily Weather History Graph

Search for Another Location

Airport:

Trip Planner

Search our weather history database for the weather conditions in past years. The results will help you decide how hot, cold, wet, or windy it might be!

Date:

Astronomy

Sep. 15, 2012 Rise Set
Actual Time 6:58 AM CDT 7:28 PM CDT
Civil Twilight 6:28 AM CDT 7:58 PM CDT
Nautical Twilight 5:53 AM CDT 8:33 PM CDT
Astronomical Twilight 5:16 AM CDT 9:09 PM CDT
Moon 6:31 AM CDT (9/15) 6:56 PM CDT (9/15)
Length of Visible Light 13h 30m
Length of Day
12h 30m
Waning Crescent, 0% of the Moon is Illuminated
Sep 15
Waning Crescent
Sep 15
New
Sep 22
First Quarter
Sep 29
Full
Oct 8
Last Quarter

Hourly Weather History & Observations

Time (CDT) Temp. Windchill Dew Point Humidity Pressure Visibility Wind Dir Wind Speed Gust Speed Precip Events Conditions
12:14 AM 57.2 °F - 35.8 °F 45% 30.24 in 10.0 mi East 6.9 mph - N/A   Clear
12:33 AM 56.8 °F - 35.2 °F 44% 30.24 in 10.0 mi East 5.8 mph - N/A   Clear
12:54 AM 56.3 °F - 35.2 °F 45% 30.23 in 10.0 mi East 5.8 mph - N/A   Clear
1:13 AM 55.8 °F - 35.2 °F 46% 30.23 in 10.0 mi East 5.8 mph - N/A   Clear
1:33 AM 55.0 °F - 35.2 °F 47% 30.23 in 10.0 mi East 4.6 mph - N/A   Clear
1:54 AM 54.5 °F - 34.9 °F 48% 30.22 in 10.0 mi East 4.6 mph - N/A   Clear
2:13 AM 54.7 °F - 34.2 °F 46% 30.21 in 10.0 mi East 3.5 mph - N/A   Clear
2:34 AM 55.0 °F - 33.4 °F 44% 30.21 in 10.0 mi East 5.8 mph - N/A   Clear
3:14 AM 50.0 °F - 35.8 °F 58% 30.18 in 10.0 mi Calm Calm - N/A   Clear
3:33 AM 54.9 °F - 34.7 °F 47% 30.18 in 10.0 mi East 6.9 mph - N/A   Clear
3:54 AM 54.9 °F - 34.7 °F 47% 30.17 in 10.0 mi East 5.8 mph - N/A   Clear
4:13 AM 54.5 °F - 34.9 °F 48% 30.16 in 10.0 mi East 4.6 mph - N/A   Clear
4:34 AM 53.6 °F - 35.6 °F 51% 30.16 in 10.0 mi East 3.5 mph - N/A   Clear
4:53 AM 52.7 °F - 36.1 °F 53% 30.16 in 10.0 mi East 3.5 mph - N/A   Clear
5:14 AM 51.4 °F - 36.7 °F 57% 30.16 in 10.0 mi East 4.6 mph - N/A   Clear
5:34 AM 51.1 °F - 37.0 °F 59% 30.16 in 10.0 mi East 3.5 mph - N/A   Clear
5:54 AM 50.0 °F - 37.4 °F 62% 30.16 in 10.0 mi Calm Calm - N/A   Clear
6:14 AM 45.7 °F 44.4 °F 37.2 °F 72% 30.16 in 10.0 mi East 3.5 mph - N/A   Clear
6:33 AM 45.0 °F - 36.9 °F 73% 30.16 in 10.0 mi Calm Calm - N/A   Clear
6:53 AM 43.5 °F - 36.9 °F 77% 30.16 in 10.0 mi Calm Calm - N/A   Clear
7:14 AM 43.2 °F - 36.9 °F 78% 30.16 in 10.0 mi Calm Calm - N/A   Clear
7:33 AM 42.8 °F - 36.7 °F 79% 30.15 in 10.0 mi Calm Calm - N/A   Clear
7:53 AM 46.4 °F 45.2 °F 38.8 °F 75% 30.15 in 10.0 mi ENE 3.5 mph - N/A   Clear
8:14 AM 51.1 °F - 42.3 °F 72% 30.14 in 7.0 mi Calm Calm - N/A   Clear
8:33 AM 53.1 °F - 44.2 °F 72% 30.14 in 10.0 mi SSE 4.6 mph - N/A   Clear
8:53 AM 53.8 °F - 43.7 °F 69% 30.13 in 10.0 mi SE 4.6 mph - N/A   Clear
9:14 AM 55.6 °F - 43.7 °F 64% 30.13 in 10.0 mi South 3.5 mph - N/A   Clear
9:34 AM 57.2 °F - 43.9 °F 61% 30.12 in 10.0 mi SSE 4.6 mph - N/A   Clear
9:53 AM 59.4 °F - 43.7 °F 56% 30.12 in 10.0 mi SSW 5.8 mph - N/A   Clear
10:13 AM 61.0 °F - 44.1 °F 54% 30.11 in 10.0 mi SSE 4.6 mph - N/A   Clear
10:34 AM 63.3 °F - 44.4 °F 50% 30.11 in 10.0 mi SE 3.5 mph - N/A   Clear
10:54 AM 65.8 °F - 44.4 °F 46% 30.10 in 10.0 mi SSE 5.8 mph - N/A   Clear
11:13 AM 66.7 °F - 44.1 °F 44% 30.10 in 10.0 mi SSE 4.6 mph - N/A   Clear
11:33 AM 68.2 °F - 43.7 °F 41% 30.09 in 10.0 mi SE 8.1 mph - N/A   Clear
11:53 AM 70.0 °F - 43.5 °F 38% 30.09 in 10.0 mi SSE 6.9 mph - N/A   Clear
12:14 PM 72.5 °F - 42.6 °F 34% 30.08 in 10.0 mi South 6.9 mph - N/A   Clear
12:33 PM 73.8 °F - 43.0 °F 33% 30.07 in 10.0 mi SE 9.2 mph - N/A   Clear
12:53 PM 74.7 °F - 41.9 °F 31% 30.07 in 10.0 mi SE 8.1 mph - N/A   Clear
1:14 PM 76.3 °F - 41.4 °F 29% 30.06 in 10.0 mi South 9.2 mph - N/A   Clear
1:34 PM 77.2 °F - 41.4 °F 28% 30.06 in 10.0 mi South 8.1 mph - N/A   Clear
2:14 PM 79.3 °F - 41.0 °F 25% 30.03 in 10.0 mi South 10.4 mph - N/A   Clear
2:33 PM 80.2 °F - 40.5 °F 24% 30.02 in 10.0 mi SSE 9.2 mph - N/A   Clear
2:53 PM 80.8 °F - 40.1 °F 23% 30.01 in 7.0 mi South 9.2 mph - N/A   Clear
3:14 PM 81.0 °F - 38.7 °F 22% 30.00 in 5.0 mi South 8.1 mph - N/A   Haze
3:34 PM 82.4 °F - 38.7 °F 21% 29.99 in 7.0 mi South 9.2 mph 17.3 mph N/A   Clear
3:53 PM 83.3 °F - 39.0 °F 21% 29.99 in 5.0 mi South 11.5 mph 17.3 mph N/A   Haze
4:14 PM 84.2 °F - 38.8 °F 20% 29.98 in 7.0 mi SSW 12.7 mph 17.3 mph N/A   Clear
4:34 PM 84.6 °F - 38.8 °F 20% 29.97 in 7.0 mi SSW 11.5 mph - N/A   Clear
4:54 PM 84.7 °F - 38.3 °F 19% 29.97 in 7.0 mi SSW 11.5 mph - N/A   Clear
5:13 PM 84.9 °F - 37.4 °F 18% 29.96 in 10.0 mi SSW 9.2 mph - N/A   Clear
5:34 PM 84.9 °F - 37.0 °F 18% 29.95 in 10.0 mi SW 12.7 mph 19.6 mph N/A   Clear
5:54 PM 84.4 °F - 37.6 °F 19% 29.95 in 10.0 mi SSW 12.7 mph - N/A   Clear
6:13 PM 83.3 °F - 37.8 °F 20% 29.94 in 10.0 mi SSW 9.2 mph - N/A   Clear
6:33 PM 82.0 °F - 37.2 °F 20% 29.94 in 10.0 mi South 10.4 mph - N/A   Clear
6:54 PM 80.6 °F - 36.5 °F 21% 29.94 in 10.0 mi South 8.1 mph - N/A   Clear
7:14 PM 78.8 °F - 37.4 °F 23% 29.93 in 10.0 mi South 8.1 mph - N/A   Clear
7:34 PM 77.5 °F - 37.4 °F 24% 29.93 in 10.0 mi South 8.1 mph - N/A   Clear
7:53 PM 76.5 °F - 37.4 °F 24% 29.94 in 10.0 mi South 9.2 mph - N/A   Clear
8:14 PM 74.8 °F - 37.8 °F 26% 29.94 in 10.0 mi South 8.1 mph - N/A   Clear
8:34 PM 73.4 °F - 37.9 °F 28% 29.94 in 10.0 mi South 8.1 mph - N/A   Clear
8:53 PM 72.9 °F - 37.8 °F 28% 29.94 in 7.0 mi South 9.2 mph - N/A   Clear
9:13 PM 72.7 °F - 37.6 °F 28% 29.94 in 10.0 mi South 9.2 mph - N/A   Clear
9:34 PM 72.1 °F - 37.4 °F 28% 29.94 in 10.0 mi SSW 10.4 mph - N/A   Clear
9:54 PM 71.6 °F - 37.4 °F 29% 29.93 in 10.0 mi South 11.5 mph - N/A   Clear
10:14 PM 70.9 °F - 37.4 °F 29% 29.93 in 10.0 mi South 12.7 mph 19.6 mph N/A   Clear
10:33 PM 69.8 °F - 37.6 °F 31% 29.93 in 10.0 mi South 12.7 mph 18.4 mph N/A   Clear
10:53 PM 69.1 °F - 37.8 °F 32% 29.93 in 10.0 mi South 11.5 mph 17.3 mph N/A   Clear
11:14 PM 68.4 °F - 38.3 °F 33% 29.93 in 10.0 mi South 11.5 mph 19.6 mph N/A   Clear
11:33 PM 67.6 °F - 38.5 °F 34% 29.93 in 10.0 mi South 11.5 mph - N/A   Clear
11:53 PM 67.3 °F - 39.2 °F 36% 29.93 in 10.0 mi South 11.5 mph 16.1 mph N/A   Clear